Regional Weather Roundup
Issued by NWS Burlington, VT

Home | Current Version | Previous Version | Text Only | Print | Product List | Glossary On
Versions: 1 2 3 4 5 6 7 8 9 10 11 12 13 14 15 16 17 18 19 20 21 22 23 24 25 26 27 28 29 30 31 32 33 34 35 36 37 38 39 40 41 42 43 44 45 46 47 48 49 50
000
ASUS41 KBTV 282230
RWRBTV
VERMONT REGIONAL WEATHER ROUNDUP
NATIONAL WEATHER SERVICE BURLINGTON VT
600 PM EDT THU MAY 28 2015

NOTE: "FAIR" INDICATES FEW OR NO CLOUDS BELOW 12,000 FEET WITH NO
SIGNIFICANT WEATHER AND/OR OBSTRUCTIONS TO VISIBILITY.

* THESE REPORTS ARE NOT UNDER NWS QUALITY CONTROL AND/OR DO NOT
  REPORT WEATHER SUCH AS PRECIPITATION AND FOG.

VTZ001>019-282300-
_____VERMONT_____


CITY           SKY/WX    TMP DP  RH WIND       PRES   REMARKS
BURLINGTON     CLOUDY    68  55  63 W6        30.15R
MONTPELIER     CLOUDY    65  54  67 NW9       30.19R
MORRISVILLE    MOCLDY    68  56  65 VRB7      30.15R
LYNDONVILLE*   CLOUDY    66  54  66 W10       30.15R
MIDDLEBURY*    CLOUDY    67  56  65 N5        30.17R
RUTLAND*       MOCLDY    68  50  52 NW9G18    30.17R
SPRINGFIELD    CLOUDY    74  53  48 W10G22    30.13R
HIGHGATE*      CLOUDY    64  59  84 W9G21     30.15R
NEWPORT*       CLOUDY    65  59  80 W6        30.14R
BENNINGTON     PTCLDY    70  54  56 NW9G21    30.19R
GALLUP MILLS*    N/A     64 N/A N/A MISG        N/A
MT. MANSFIELD*   N/A     50 N/A N/A CALM        N/A

_____LAKE CHAMPLAIN_____


CITY           SKY/WX    TMP DP  RH WIND       PRES   REMARKS
BURTON ISLAND*   N/A     63  57  82 W3          N/A
COLCHESTER RF*   N/A     64  55  72 NW18        N/A
DIAMOND ISL*     N/A     70  55  60 NW6         N/A

$$

NYZ007-026>031-035-052-083-282300-
_____NORTHERN NEW YORK_____


CITY           SKY/WX    TMP DP  RH WIND       PRES   REMARKS
PLATTSBURGH    CLOUDY    68  56  65 W15G28    30.14R
SARANAC LAKE   CLOUDY    59  56  89 VRB5      30.21R
MASSENA        PTCLDY    70  54  56 NW8       30.20R
OGDENSBURG*    PTCLDY    75  55  50 NW8       30.19F
POTSDAM*       CLEAR     70  57  64 NW8       30.20S
STARK FALLS*     N/A     64 N/A N/A NW3         N/A
WATERTOWN      CLEAR     66  54  65 SW10      30.22F
ALBANY         MOCLDY    72  53  51 NW13G25   30.18R
GLENS FALLS    MOCLDY    72  54  53 W8        30.16S

$$
NHZ002-005-011-282300-
_____NEW HAMPSHIRE_____


CITY           SKY/WX    TMP DP  RH WIND       PRES   REMARKS
LEBANON        MOCLDY    73  54  51 NW14G23   30.12R
KEENE          MOCLDY    77  57  50 NW7       30.13R
MT WASHINGTON  FOG       46  46 100 NW40        N/A  VSB 0
PLYMOUTH       MOCLDY    74  63  67 W12G18    30.09R
WHITEFIELD     CLOUDY    67  55  65 NW7       30.12S

$$

_____REGIONAL QUEBEC LOCATIONS_____


CITY           SKY/WX    TMP DP  RH WIND       PRES   REMARKS
MONTREAL       MOCLDY    64  61  88 CALM      30.14S
QUEBEC CITY    MOCLDY    70  59  68 N10       30.07S
SHERBROOKE     RAIN      63 N/A N/A NW8       30.11R

_____REGIONAL ONTARIO LOCATIONS_____


CITY           SKY/WX    TMP DP  RH WIND       PRES   REMARKS
OTTAWA         PTCLDY    72  54  53 W15       30.19S

______KEY______
VSB  - VISIBILITY IN MILES
WCI  - WIND CHILL INDEX
HX   - HEAT INDEX
$$
NNNN



USA.gov is the U.S. government's official web portal to all federal, state and local government web resources and services.